Sydney, Australia

2:03 PM AEST on April 29, 2017 (GMT +1000)
Kingsford Smith International

Weather History for YSSY - November, 2013

Change the Weather History Date:

Friday, November 29, 2013

  Actual Average Record
Temperature  
Mean Temperature 68 °F -  
Max Temperature 77 °F 79 °F 87 °F (1996)
Min Temperature 60 °F 64 °F 53 °F (2005)
Cooling Degree Days 4    
Growing Degree Days 18 (Base 50)    
Moisture  
Dew Point 59 °F    
Average Humidity 74    
Maximum Humidity 94    
Minimum Humidity 45    
Precipitation  
Precipitation 0.16 in 0.11 in - ()
Sea Level Pressure  
Sea Level Pressure 29.73 in    
Wind  
Wind Speed 19 mph ()    
Max Wind Speed 32 mph    
Max Gust Speed 44 mph    
Visibility 6.7 miles    
Events Rain    
Averages and records for this station are not official NWS values.
T = Trace of Precipitation, MM = Missing Value Source: Averaged Metar Reports

Daily Weather History Graph

Daily Weather History Graph

Search for Another Location

Airport or City:

Trip Planner

Search our weather history database for the weather conditions in past years. The results will help you decide how hot, cold, wet, or windy it might be!

Date:

Astronomy

Nov. 29, 2013 Rise Set
Actual Time 5:37 AM AEDT 7:49 PM AEDT
Civil Twilight 5:09 AM AEDT 8:18 PM AEDT
Nautical Twilight 4:34 AM AEDT 8:53 PM AEDT
Astronomical Twilight 3:56 AM AEDT 9:30 PM AEDT
Moon 2:40 AM AEDT 3:43 PM AEDT
Length of Visible Light 15h 08m
Length of Day
14h 12m
Waning Crescent, 19% of the Moon is Illuminated
Nov 29
Waning Crescent
Dec 3
New
Dec 10
First Quarter
Dec 17
Full
Dec 26
Last Quarter

Hourly Weather History & Observations

Time (AEDT) Temp. Dew Point Humidity Pressure Visibility Wind Dir Wind Speed Gust Speed Precip Events Conditions
12:00 AM 77 °F 60 °F 46% 29.53 in 16 mi NNE 10.4 mph - -   Partly Cloudy
12:00 AM 77.0 °F 60.8 °F 57% 29.50 in - North 10.4 mph - N/A   Clear
12:30 AM 77.0 °F 60.8 °F 57% 29.50 in - North 5.8 mph - N/A   Clear
1:00 AM 72 °F 65 °F 72% 29.53 in - SW 11.5 mph - -  
1:00 AM 71.6 °F 64.4 °F 78% 29.50 in - SW 11.5 mph - N/A   Clear
1:30 AM 71.6 °F 66.2 °F 83% 29.53 in - SSW 10.4 mph - N/A   Clear
2:00 AM 71 °F 65 °F 76% 29.56 in - South 28.8 mph - -  
2:00 AM 71.6 °F 64.4 °F 78% 29.53 in 6.2 mi South 28.8 mph - N/A   Mostly Cloudy
2:30 AM 69.8 °F 62.6 °F 78% 29.56 in 6.2 mi South 29.9 mph 41.4 mph N/A   Mostly Cloudy
3:00 AM 70 °F 62 °F 69% 29.57 in 12 mi South 31.1 mph - -   Partly Cloudy
3:00 AM 69.8 °F 62.6 °F 78% 29.56 in 6.2 mi South 31.1 mph 42.6 mph N/A   Mostly Cloudy
3:30 AM 69.8 °F 60.8 °F 73% 29.56 in 6.2 mi South 29.9 mph 41.4 mph N/A   Mostly Cloudy
4:00 AM 69 °F 62 °F 71% 29.60 in - South 28.8 mph - -  
4:00 AM 69.8 °F 62.6 °F 78% 29.59 in 6.2 mi South 28.8 mph - N/A   Mostly Cloudy
4:10 AM 68.0 °F 62.6 °F 83% 29.59 in 6.2 mi South 26.5 mph 38.0 mph N/A   Mostly Cloudy
4:30 AM 68.0 °F 62.6 °F 83% 29.62 in 6.2 mi SSW 27.6 mph 39.1 mph N/A   Mostly Cloudy
5:00 AM 68 °F 62 °F 76% 29.62 in - South 32.2 mph - -  
5:00 AM 68.0 °F 62.6 °F 83% 29.59 in 6.2 mi South 32.2 mph 43.7 mph N/A Rain Light Rain Showers
5:30 AM 68.0 °F 62.6 °F 83% 29.62 in 6.2 mi South 24.2 mph - N/A Rain Light Rain Showers
6:00 AM 68 °F 63 °F 80% 29.66 in 6 mi South 19.6 mph - - Rain Light Rain
6:00 AM 68.0 °F 62.6 °F 83% 29.65 in 5.6 mi South 19.6 mph - N/A Rain Light Rain
6:30 AM 68.0 °F 62.6 °F 83% 29.65 in 6.2 mi South 20.7 mph 33.4 mph N/A Rain Light Rain
7:00 AM 68 °F 63 °F 78% 29.67 in - South 20.7 mph - -  
7:00 AM 68.0 °F 62.6 °F 83% 29.65 in 6.2 mi South 20.7 mph - N/A   Light Drizzle
7:30 AM 68.0 °F 62.6 °F 83% 29.65 in 6.2 mi South 19.6 mph - N/A   Overcast
8:00 AM 69 °F 62 °F 71% 29.67 in - South 18.4 mph - -  
8:00 AM 69.8 °F 62.6 °F 78% 29.65 in 6.2 mi South 18.4 mph - N/A   Overcast
8:30 AM 69.8 °F 60.8 °F 73% 29.68 in 6.2 mi South 13.8 mph - N/A   Overcast
9:00 AM 69 °F 61 °F 69% 29.71 in 10 mi South 12.7 mph - - Rain Light Rain
9:00 AM 69.8 °F 60.8 °F 73% 29.68 in 6.2 mi South 12.7 mph - N/A Rain Light Rain
9:30 AM 69.8 °F 62.6 °F 78% 29.71 in 6.2 mi SSW 12.7 mph - N/A Rain Light Rain
10:00 AM 67 °F 63 °F 83% 29.75 in - WSW 13.8 mph - -  
10:00 AM 68.0 °F 62.6 °F 83% 29.74 in 4.3 mi WSW 13.8 mph - N/A Rain Light Rain Showers
10:16 AM 68.0 °F 64.4 °F 88% 29.74 in 5.6 mi SSW 16.1 mph - N/A   Light Drizzle
10:30 AM 66.2 °F 64.4 °F 94% 29.74 in 5.6 mi South 15.0 mph - N/A Rain Light Rain Showers
11:00 AM 66 °F 63 °F 85% 29.75 in - South 15.0 mph - -  
11:00 AM 66.2 °F 62.6 °F 88% 29.74 in 6.2 mi South 15.0 mph - N/A   Mostly Cloudy
11:17 AM 66.2 °F 62.6 °F 88% 29.74 in 6.2 mi South 16.1 mph - N/A Rain Light Rain Showers
11:30 AM 66.2 °F 62.6 °F 88% 29.74 in 6.2 mi South 17.3 mph 29.9 mph N/A Rain Light Rain Showers
12:00 PM 64 °F 61 °F 87% 29.74 in 9 mi South 26.5 mph - - Rain Light Rain
12:00 PM 64.4 °F 60.8 °F 88% 29.74 in 6.2 mi South 26.5 mph - N/A Rain Light Rain
12:30 PM 62.6 °F 59.0 °F 88% 29.74 in 4.3 mi South 24.2 mph - N/A Rain Light Rain Showers
1:00 PM 62 °F 60 °F 90% 29.76 in - South 24.2 mph - -  
1:00 PM 62.6 °F 60.8 °F 94% 29.74 in 3.7 mi South 24.2 mph - N/A Rain Light Rain Showers
1:23 PM 60.8 °F 59.0 °F 94% 29.74 in 2.2 mi South 26.5 mph - N/A Rain Rain Showers
1:30 PM 60.8 °F 59.0 °F 94% 29.77 in 4.3 mi South 27.6 mph - N/A Rain Light Rain Showers
2:00 PM 61 °F 59 °F 90% 29.77 in - South 26.5 mph - -  
2:00 PM 60.8 °F 59.0 °F 94% 29.77 in 6.2 mi South 26.5 mph - N/A   Light Drizzle
2:30 PM 62.6 °F 59.0 °F 88% 29.77 in 6.2 mi South 25.3 mph - N/A   Light Drizzle
3:00 PM 63 °F 57 °F 76% 29.80 in 11 mi South 25.3 mph - -   Mostly Cloudy
3:00 PM 62.6 °F 57.2 °F 82% 29.80 in 6.2 mi South 25.3 mph - N/A   Mostly Cloudy
3:30 PM 64.4 °F 57.2 °F 77% 29.77 in 6.2 mi South 24.2 mph - N/A   Mostly Cloudy
3:49 PM 64.4 °F 57.2 °F 77% 29.77 in 6.2 mi South 24.2 mph 36.8 mph N/A   Mostly Cloudy
4:00 PM 64 °F 57 °F 72% 29.79 in - South 24.2 mph - -  
4:00 PM 64.4 °F 57.2 °F 77% 29.77 in 6.2 mi South 24.2 mph - N/A   Mostly Cloudy
4:50 PM 66.2 °F 55.4 °F 68% 29.80 in 6.2 mi South 25.3 mph 36.8 mph N/A   Mostly Cloudy
5:00 PM 66 °F 56 °F 62% 29.81 in - South 26.5 mph - -  
5:00 PM 66.2 °F 55.4 °F 68% 29.80 in 6.2 mi South 26.5 mph - N/A   Mostly Cloudy
5:30 PM 66.2 °F 57.2 °F 73% 29.80 in 6.2 mi South 23.0 mph - N/A   Mostly Cloudy
6:00 PM 66 °F 55 °F 60% 29.83 in 11 mi South 21.9 mph - - Rain Light Rain Showers
6:00 PM 66.2 °F 55.4 °F 68% 29.83 in 6.2 mi South 21.9 mph - N/A Rain Light Rain Showers
6:30 PM 66.2 °F 55.4 °F 68% 29.83 in 6.2 mi South 21.9 mph - N/A   Mostly Cloudy
7:00 PM 66 °F 53 °F 53% 29.87 in - South 23.0 mph - -  
7:00 PM 66.2 °F 53.6 °F 64% 29.86 in 6.2 mi South 23.0 mph - N/A   Mostly Cloudy
7:30 PM 66.2 °F 51.8 °F 60% 29.89 in 6.2 mi South 19.6 mph - N/A   Scattered Clouds
8:00 PM 66 °F 52 °F 50% 29.91 in - South 19.6 mph - -  
8:00 PM 66.2 °F 51.8 °F 60% 29.89 in 6.2 mi South 19.6 mph - N/A   Scattered Clouds
8:30 PM 64.4 °F 50.0 °F 59% 29.92 in 6.2 mi SSE 18.4 mph - N/A   Scattered Clouds
9:00 PM 65 °F 49 °F 45% 29.93 in 16 mi SSE 20.7 mph - -   Partly Cloudy
9:00 PM 64.4 °F 48.2 °F 56% 29.92 in 6.2 mi SSE 20.7 mph - N/A   Mostly Cloudy
9:30 PM 64.4 °F 50.0 °F 59% 29.92 in 6.2 mi SSE 16.1 mph - N/A   Mostly Cloudy
10:00 PM 65 °F 50 °F 48% 29.95 in - South 17.3 mph - -  
10:00 PM 64.4 °F 50.0 °F 59% 29.95 in 6.2 mi South 17.3 mph - N/A   Scattered Clouds
10:30 PM 66.2 °F 50.0 °F 56% 29.95 in 6.2 mi SSE 13.8 mph - N/A   Scattered Clouds
11:00 PM 65 °F 52 °F 53% 29.96 in - SSE 13.8 mph - -  
11:00 PM 64.4 °F 51.8 °F 64% 29.95 in 6.2 mi SSE 13.8 mph - N/A   Scattered Clouds
11:30 PM 62.6 °F 57.2 °F 82% 29.95 in 6.2 mi South 21.9 mph - N/A Rain Light Rain Showers